Theta_e
322 322 320 317 312 308 311 310 308 306 307 310 307 304 300 301 302 302 303 303 303 305 311 310 308 310 312 313 313 316 318 319 320 321 321 319 319 320 320 327 327 326 325 324 325
322 323 322 320 315 308 310 310 308 306 305 309 307 303 300 300 300 300 301 304 308 311 310 308 307 307 310 312 313 313 316 316 317 319 320 319 319 320 324 328 330 327 328 327 326
323 323 321 318 317 309 307 309 308 306 304 308 307 304 301 300 300 304 306 308 308 305 305 305 303 304 308 310 312 313 314 314 314 316 320 322 323 322 322 327 329 328 332 329 328
320 321 321 319 316 309 306 309 307 305 304 308 308 305 301 301 301 304 306 308 308 306 305 306 304 306 308 309 309 311 311 312 314 315 319 320 322 323 321 324 325 330 331 327 326
318 320 320 319 316 311 307 308 307 305 304 307 308 305 300 302 301 304 307 307 304 303 304 305 305 305 305 306 308 310 311 311 313 313 316 320 322 322 323 323 324 330 331 328 327
316 318 320 320 318 312 307 307 305 306 304 306 307 305 300 300 300 303 304 304 303 303 305 305 305 304 305 305 307 308 308 309 310 314 316 319 320 319 322 321 324 330 332 329 327
310 314 319 317 312 308 308 307 304 304 304 306 307 305 301 300 300 303 304 303 304 302 304 305 304 303 305 306 306 307 309 310 310 311 317 316 319 318 318 320 322 328 332 331 328
309 315 317 316 312 308 304 304 302 303 304 306 306 303 300 300 301 303 303 303 303 303 304 305 305 304 304 305 307 307 308 312 311 311 316 316 319 317 313 317 320 327 332 333 331
306 312 316 315 311 307 303 302 303 305 305 305 303 300 302 303 304 303 304 304 304 304 304 305 305 304 304 308 306 308 310 313 314 312 315 315 316 317 313 314 319 320 330 332 332
307 311 315 314 310 306 302 303 304 303 301 300 301 303 302 303 303 303 303 303 303 304 304 305 305 306 307 309 307 310 309 312 316 316 314 313 313 311 312 314 318 319 323 331 332
304 310 315 313 310 306 303 303 303 305 303 304 303 303 303 304 304 303 303 303 304 305 304 305 305 307 305 306 307 310 309 311 315 317 315 315 314 313 313 313 315 319 320 329 331
303 310 313 313 309 306 303 301 304 304 304 305 304 304 304 304 304 304 304 304 305 304 305 305 308 307 306 306 307 307 310 315 316 316 316 316 317 315 314 314 315 318 320 325 329
304 309 312 311 306 307 303 302 305 305 304 305 305 306 305 304 305 304 304 304 304 304 304 306 308 308 308 308 309 306 312 316 316 317 316 317 318 317 316 316 315 317 318 320 324
304 307 311 308 307 304 303 303 305 304 294 300 305 305 305 305 304 304 305 305 306 307 307 308 307 310 308 309 311 313 313 316 317 319 322 318 320 318 317 317 316 315 318 320 320
305 305 309 307 306 305 304 305 304 304 293 299 304 305 306 307 307 307 306 306 308 308 307 312 311 308 312 312 313 313 315 316 317 319 319 319 319 318 315 319 318 315 317 320 321
303 306 308 307 306 304 305 304 303 295 293 299 305 305 306 307 308 308 308 307 307 308 307 307 306 309 313 313 312 314 315 315 316 316 319 319 317 316 318 317 315 313 315 319 321
304 308 307 307 305 304 304 302 299 295 299 302 303 305 305 306 308 309 310 311 310 310 311 311 311 312 312 316 314 313 312 316 316 317 318 312 317 316 313 314 312 312 311 313 321
305 307 306 305 303 304 302 300 297 301 300 304 305 305 305 306 307 307 308 308 308 305 308 313 317 313 313 315 316 314 311 313 317 318 316 315 317 315 308 308 308 309 310 312 315
304 306 304 304 304 304 303 297 299 299 302 305 305 305 305 306 307 306 307 308 308 307 308 314 315 312 313 313 314 314 311 309 309 308 315 312 312 308 308 308 307 307 308 309 312
306 304 304 303 304 302 299 303 301 301 304 304 305 305 307 305 307 307 306 308 308 306 307 309 317 312 312 313 313 312 309 311 310 313 312 311 310 311 308 307 307 308 307 309 311
304 302 303 304 303 303 298 300 304 305 306 307 306 306 305 307 307 308 308 309 307 308 305 306 309 312 311 312 314 314 313 308 307 307 312 311 311 306 306 305 307 308 309 310 311
303 303 304 304 303 302 303 302 306 307 308 308 307 306 306 306 308 309 310 310 309 308 309 307 307 311 312 309 309 311 312 306 310 311 303 307 310 304 306 307 308 309 310 311 311
302 303 304 304 304 303 302 306 307 307 308 309 309 308 305 308 310 309 310 310 309 308 309 307 305 305 308 307 308 310 310 306 305 305 306 309 310 305 306 307 307 308 311 311 311
303 303 303 305 303 301 304 307 308 308 307 308 307 307 308 308 306 309 310 310 310 309 309 306 304 304 304 307 307 311 311 309 306 307 309 307 309 308 307 307 308 309 309 310 311
304 304 303 304 304 302 304 306 308 309 308 307 308 308 308 309 309 310 310 309 309 308 306 305 306 301 305 307 307 310 310 310 304 308 309 309 309 309 307 306 307 307 308 309 310
303 302 303 302 304 303 305 307 307 307 308 308 307 307 307 308 308 309 309 309 309 306 306 303 305 301 305 305 305 309 307 307 309 309 310 309 310 306 305 307 308 308 308 308 308
303 303 303 303 303 306 305 305 307 306 307 307 306 306 307 307 307 307 307 306 306 307 306 305 304 304 306 304 305 306 306 307 307 307 308 309 306 304 305 306 307 305 306 306 307
Wind_Speed
30 33 27 20 18 16 16 19 19 15 12 12 11 12 9 9 9 9 9 5 1 5 6 6 6 5 7 8 10 5 6 13 18 20 17 10 8 26 17 9 25 27 20 36 21
29 32 33 23 17 16 14 19 18 15 11 10 9 11 9 9 9 8 4 4 1 4 4 4 5 6 5 3 6 7 8 18 8 11 7 19 19 19 10 11 14 17 20 24 24
29 31 33 23 17 14 14 18 18 15 10 10 8 11 8 7 6 2 6 4 2 4 5 6 5 4 4 8 5 5 14 13 13 16 14 6 5 4 10 12 16 27 21 23 18
28 27 32 25 18 12 14 16 16 13 10 9 8 9 8 3 1 6 4 2 5 7 8 7 3 1 2 6 12 9 13 17 10 16 14 8 7 5 9 17 12 27 30 25 18
26 27 30 25 21 14 11 13 15 12 11 8 9 7 5 3 5 7 6 7 6 8 6 5 4 3 5 4 8 11 10 10 15 21 20 13 10 4 21 24 21 14 32 33 24
28 27 33 29 25 15 8 13 13 13 11 9 7 6 4 3 4 7 6 5 6 6 6 9 7 6 9 11 9 6 18 20 21 13 15 6 8 8 10 15 22 19 40 41 35
25 25 29 25 16 9 4 13 12 15 12 9 8 5 7 7 5 7 7 7 7 9 10 11 13 7 6 7 20 20 6 8 18 17 3 3 8 7 17 22 26 26 37 44 39
17 16 22 23 14 6 4 10 10 6 5 8 10 7 4 3 9 8 8 8 9 8 10 12 10 12 16 10 5 13 7 8 13 13 6 4 5 3 19 24 23 15 33 42 36
21 21 16 26 15 3 2 5 6 4 6 8 8 4 5 5 7 7 9 11 10 11 11 10 7 7 8 4 7 9 5 9 6 17 5 7 0 4 21 24 25 21 27 35 37
16 25 14 24 10 3 1 4 4 6 7 6 5 2 4 2 6 7 10 12 13 10 9 8 5 3 4 4 9 7 8 7 6 12 7 7 4 10 23 23 24 22 15 32 35
13 21 21 20 9 5 6 8 5 5 9 5 4 2 6 4 10 5 5 5 10 6 6 5 4 6 11 11 2 2 9 11 4 11 8 7 1 5 15 17 23 15 9 19 29
17 14 24 21 9 5 11 11 7 2 3 8 4 8 9 7 2 5 5 4 6 8 2 4 8 8 11 10 9 2 10 6 9 11 4 6 2 5 6 14 19 14 7 12 23
15 16 26 19 11 5 14 23 5 6 2 3 4 7 4 3 3 5 5 4 5 7 9 10 4 10 8 9 10 7 12 7 13 10 8 5 6 7 8 14 12 17 9 5 16
15 18 24 16 8 7 17 19 8 7 4 3 2 3 1 1 4 6 5 4 2 4 6 6 5 8 10 7 10 9 7 14 16 6 5 2 1 5 3 5 9 10 6 3 7
11 10 24 17 7 10 5 15 10 5 3 3 2 2 2 2 7 3 5 5 6 5 3 5 5 3 5 7 13 3 9 16 8 9 10 1 2 4 2 1 8 7 2 4 3
11 13 25 18 9 8 10 14 10 6 4 2 1 2 1 3 3 4 3 7 9 0 3 3 2 1 2 1 4 10 7 5 3 0 4 1 2 2 2 1 6 6 7 8 8
7 10 29 18 12 14 16 15 4 4 3 2 2 1 1 3 2 2 3 2 4 4 5 3 3 3 3 7 3 5 4 2 4 4 2 4 1 3 2 2 4 7 14 12 18
7 16 22 17 17 18 21 3 4 2 4 1 1 2 2 4 2 2 1 6 4 4 4 5 5 8 8 3 3 3 2 3 5 4 3 3 4 2 3 9 8 7 6 8 14
4 28 21 19 20 22 8 2 6 5 5 6 3 4 3 1 1 4 5 5 3 5 4 2 5 3 5 4 3 6 4 1 6 2 3 2 2 1 4 9 10 12 13 14 14
23 25 23 21 22 21 3 3 2 3 3 2 4 1 2 5 4 3 5 4 6 5 2 2 4 3 3 3 6 1 0 1 3 4 4 3 2 2 7 7 5 7 12 14 13
30 10 20 23 19 8 2 4 3 3 2 1 3 4 1 1 2 3 4 3 4 6 5 2 3 2 2 4 2 3 2 5 4 2 4 3 2 2 5 4 3 5 11 13 14
15 4 25 23 6 3 2 4 3 3 2 1 4 3 3 1 3 3 2 2 12 3 3 3 3 4 1 4 3 2 3 3 3 3 4 3 1 2 2 1 5 6 9 13 14
9 10 22 22 3 4 3 2 2 3 1 2 2 1 1 2 3 2 1 2 9 4 2 1 3 3 6 3 2 5 4 4 4 2 2 4 2 2 3 4 8 9 5 6 9
10 4 7 8 2 4 4 3 3 1 2 3 3 3 3 4 5 2 2 3 6 4 7 4 4 3 4 2 1 4 4 3 3 3 2 1 0 1 6 6 12 12 10 12 15
6 3 7 6 5 3 1 4 5 3 2 2 3 2 2 2 2 2 1 3 3 7 4 3 4 3 4 3 3 3 4 3 4 2 3 1 2 4 6 6 11 15 15 14 13
6 5 7 4 14 4 1 3 4 2 3 1 5 3 2 3 1 5 3 0 1 5 4 4 1 2 4 5 5 2 2 3 3 2 0 1 2 2 10 12 16 17 16 17 18
7 14 9 9 10 3 5 4 6 6 4 3 6 5 5 2 4 6 7 9 5 2 3 3 3 3 2 4 3 4 2 1 1 2 2 2 2 4 5 10 17 19 19 19 18
Wind_Direction
316 313 297 302 311 307 301 301 308 317 278 292 318 321 303 295 285 281 283 262 209 189 266 280 276 250 234 234 233 238 236 237 227 224 220 239 242 267 261 196 195 200 211 229 231
306 308 296 290 302 308 299 295 300 315 273 293 318 317 302 297 297 288 261 243 201 272 284 302 291 264 239 260 227 217 227 237 225 229 215 245 239 259 255 219 220 200 215 182 209
306 305 290 285 297 304 296 288 296 303 270 281 305 314 299 307 317 106 123 112 194 279 301 314 325 250 228 232 219 206 240 242 258 256 225 211 254 269 261 242 221 189 192 171 160
315 297 283 281 285 289 291 285 295 297 260 275 277 290 302 303 58 136 131 155 239 269 287 290 319 101 242 217 219 252 258 250 271 268 266 243 266 345 256 247 297 222 193 161 175
307 317 275 282 273 281 301 280 291 293 266 264 268 283 296 266 242 201 185 230 268 288 280 249 266 258 244 245 235 240 252 281 260 267 275 271 260 288 284 281 269 227 190 177 193
296 323 274 284 274 281 309 286 295 274 268 250 269 284 256 244 202 191 216 260 304 291 275 255 230 220 267 251 231 231 234 250 267 280 244 292 268 22 307 312 268 234 189 185 191
291 307 273 257 251 277 302 283 291 265 264 225 259 276 258 259 215 219 244 271 295 296 275 277 246 259 282 257 234 243 283 247 236 251 236 199 250 238 347 327 296 248 204 191 190
314 312 276 249 243 264 303 289 283 269 217 216 249 268 255 217 217 235 253 247 286 280 278 288 258 227 232 237 254 204 241 238 223 210 217 161 244 124 325 350 326 263 199 201 191
324 317 284 243 234 251 268 300 233 194 201 211 235 240 278 210 240 264 259 259 278 284 285 270 236 226 203 211 218 186 195 219 155 186 128 182 205 258 295 339 329 320 214 198 187
331 323 252 227 223 169 232 191 181 198 187 192 218 257 248 237 286 280 278 259 269 280 284 234 230 223 187 190 200 200 191 181 169 167 134 185 285 316 311 328 318 308 287 190 189
313 337 221 219 220 158 161 177 154 202 194 220 171 247 273 303 297 281 271 264 252 236 236 202 221 230 202 196 266 53 179 171 171 152 138 196 54 307 304 309 295 300 283 188 176
321 308 243 226 202 138 179 194 218 157 165 212 224 269 279 283 300 264 265 235 206 243 210 229 243 237 207 205 231 167 195 161 119 147 118 159 89 272 290 274 268 289 283 147 180
319 312 225 215 178 161 207 209 197 163 107 209 219 264 272 233 257 232 238 217 233 243 237 245 291 172 166 190 184 226 204 154 135 117 83 107 25 282 246 244 302 273 259 150 152
293 359 221 189 185 177 216 204 197 181 71 275 270 262 230 185 284 264 252 241 251 268 233 237 221 168 163 209 189 177 193 145 146 166 94 25 218 267 264 311 251 283 233 161 140
278 307 217 198 168 177 216 194 179 181 38 259 228 266 250 128 309 275 249 209 244 239 213 68 136 137 161 181 196 194 142 140 163 110 124 97 80 287 310 255 281 271 240 234 173
296 314 204 188 176 152 179 172 163 45 260 312 233 232 293 187 221 278 248 223 265 202 15 86 339 185 289 228 180 135 102 98 103 150 59 111 155 63 81 199 304 360 324 273 246
287 295 192 188 163 159 162 166 53 125 281 240 195 140 61 293 298 276 334 324 18 9 18 158 105 191 49 101 36 86 73 43 28 47 80 317 50 33 339 59 273 305 305 268 237
240 197 180 170 154 163 162 59 97 128 206 263 198 81 63 344 312 7 345 7 33 49 47 27 64 11 348 56 122 82 136 156 143 129 170 248 51 26 327 60 39 26 335 256 215
262 168 167 160 155 167 169 72 207 194 168 165 67 67 345 355 236 21 25 355 350 8 97 59 50 16 16 19 4 313 38 275 106 66 94 349 328 170 44 61 47 51 67 79 105
163 159 160 160 159 172 79 245 209 183 145 230 110 70 24 323 26 34 18 335 339 19 255 68 99 13 18 56 321 292 257 63 13 98 82 37 50 315 345 359 14 38 49 66 78
151 117 165 160 158 160 172 229 238 191 185 130 138 122 192 331 31 27 350 329 357 330 45 39 43 319 11 22 341 353 13 48 108 48 123 102 343 253 294 311 21 44 65 65 69
125 102 161 149 134 183 206 208 163 163 203 71 103 105 133 138 41 70 66 300 337 304 55 334 106 65 174 270 258 3 40 75 96 344 47 89 330 333 285 70 113 53 58 62 48
88 94 161 163 148 186 258 224 141 156 207 101 97 83 149 83 88 59 76 326 355 40 72 6 14 37 351 6 50 51 27 56 70 69 358 99 201 132 38 36 39 19 33 31 15
106 118 148 199 182 176 182 146 106 73 91 82 104 92 94 55 18 112 44 340 350 31 44 85 64 113 157 236 297 56 34 40 97 72 167 53 46 350 14 1 336 358 351 327 329
88 111 162 176 217 201 235 133 128 138 64 47 64 65 117 94 47 73 1 350 4 2 37 79 95 72 46 27 50 55 33 25 76 144 99 230 254 324 340 330 331 341 347 344 344
107 139 154 164 174 153 358 165 132 123 114 172 119 97 44 110 231 194 155 115 14 359 50 16 99 83 31 13 27 94 74 67 77 100 139 245 305 6 346 26 14 5 10 13 9
99 123 121 134 165 172 175 179 178 140 37 100 147 101 67 35 112 101 101 88 85 78 64 56 117 65 330 341 7 28 24 85 98 155 145 111 63 342 350 347 2 11 18 9 3